Location: Dehesa de la Cepeda
(40.6574°N, 4.3013°W)
Time: 02:03:43
(UTC+00:00)

Courier 1B - Pass Details

Date: 10 August 2021
Orbit: 963 x 1209 km, 28.3° (Epoch: 17 September)

Event Time Altitude Azimuth Distance (km) Brightness Sun altitude
Rises 20:01:00 0° 260° (W) 4,077 11.7 -7.6°
Reaches altitude 10° 20:04:37 10° 245° (WSW) 3,131 10.7 -8.2°
Maximum altitude 20:10:05 21° 200° (SSW) 2,423 9.5 -9.1°
Drops below altitude 10° 20:15:33 10° 155° (SSE) 3,127 9.7 -10.0°
Enters shadow 20:16:37 - 150° (SSE) 3,381 9.8 -10.2°
Sets 20:19:11 0° 140° (SE) 4,070 - -10.6°
